This demonstration page uses our WeatherBlox Daily Observations layout. Learn more.

Left ArrowRight Arrow

34.02893, -84.19858

Hourly Observations for November 25, 2016

Temp ( °F °C ) Dew Point ( °F °C ) Humidity (%) Winds ( mph kmh ) Pressure ( in mb ) Visibility ( mi km ) Precip ( " mm )
12:53 am 00:53 Clear 51 10.6 48 8.9 89 89 Calm 30.20 1023 7 11 0.00 0.00
1:49 am 01:49 Partly Cloudy with Mist and Fog 50 10 46 8 88 88 Calm 30.24 1024 2 2 0.00 0.00
1:53 am 01:53 Partly Cloudy with Mist and Fog 48 8.9 47 8.3 96 96 Calm 30.20 1023 1 1 0.00 0.00
2:01 am 02:01 Partly Cloudy with Mist and Fog 50 10 47 8.3 89 89 Calm 30.24 1024 3 4 0.00 0.00
2:08 am 02:08 Partly Cloudy with Mist and Fog 52 11 48 9 88 88 Calm 30.21 1023 5 8 0.00 0.00
2:53 am 02:53 Partly Cloudy 51 10.6 48 8.9 89 89 Calm 30.20 1023 8 13 0.00 0.00
3:34 am 03:34 Mostly Clear with Mist and Fog 48 9 48 9 100 100 Calm 30.24 1024 3 4 0.00 0.00
3:42 am 03:42 Mostly Clear with Mist and Fog 50 10 48 9 94 94 Calm 30.24 1024 4 6 0.00 0.00
3:53 am 03:53 Mostly Clear with Mist and Fog 50 10 48 8.9 93 93 Calm 30.20 1023 6 10 0.00 0.00
4:53 am 04:53 Mostly Cloudy 48 8.9 46 7.8 93 93 Calm 30.20 1023 7 11 0.00 0.00
5:53 am 05:53 Clear with Mist and Fog 50 10 48 8.9 93 93 Calm 30.22 1023 6 10 0.00 0.00
6:53 am 06:53 Clear with Mist and Fog 47 8.3 46 7.8 97 97 Calm 30.25 1024 5 8 0.00 0.00
7:53 am 07:53 Sunny 48 8.9 46 7.8 93 93 Calm 30.26 1025 7 11 0.00 0.00
8:53 am 08:53 Sunny 54 12.2 51 10.6 90 90 Calm 30.25 1025 7 11 0.00 0.00
9:53 am 09:53 Sunny 61 16.1 51 10.6 70 70 W 5 7 30.26 1025 10 16 0.00 0.00
10:53 am 10:53 Sunny 66 18.9 46 7.8 49 49 WNW 9 15 30.24 1024 10 16 0.00 0.00
11:53 am 11:53 Sunny 68 20 43 6.1 40 40 WNW 9 15 30.23 1024 10 16 0.00 0.00
12:53 pm 12:53 Sunny 69 20.6 42 5.6 38 38 W 10 17 30.20 1023 10 16 0.00 0.00
1:53 pm 13:53 Sunny 69 20.6 41 5 36 36 WNW 10 17 30.18 1022 10 16 0.00 0.00
2:53 pm 14:53 Sunny 70 21.1 40 4.4 34 34 WSW 9 15 30.17 1022 10 16 0.00 0.00
3:53 pm 15:53 Sunny 69 20.6 42 5.6 38 38 NW 7 11 30.17 1022 10 16 0.00 0.00
4:53 pm 16:53 Sunny 63 17.2 47 8.3 56 56 NNW 12 19 30.18 1022 10 16 0.00 0.00
5:53 pm 17:53 Clear 59 15 47 8.3 64 64 NW 9 15 30.19 1022 10 16 0.00 0.00
6:53 pm 18:53 Clear 56 13.3 47 8.3 72 72 NW 8 13 30.21 1023 10 16 0.00 0.00
7:53 pm 19:53 Clear 54 12.2 45 7.2 72 72 NNW 6 9 30.23 1024 10 16 0.00 0.00
8:53 pm 20:53 Clear 54 12.2 45 7.2 72 72 WNW 7 11 30.22 1024 10 16 0.00 0.00
9:53 pm 21:53 Clear 54 12.2 45 7.2 72 72 NW 12 19 30.22 1023 10 16 0.00 0.00
10:53 pm 22:53 Clear 52 11.1 42 5.6 69 69 NW 14 22 30.22 1024 10 16 0.00 0.00
11:53 pm 23:53 Clear 50 10 39 4 67 67 WNW 7 11 30.27 1025 10 16 0.00 0.00

Powered by AerisWeather